Clawson, MI

7:52 PM EST on December 04, 2016 (GMT -0500)
Troy

Weather History for KVLL - October, 2013

Change the Weather History Date:

Thursday, October 10, 2013

  Actual Average (KDET) Record (KDET)
Temperature  
Mean Temperature 60 °F -  
Max Temperature 71 °F 62 °F 84 °F (1949)
Min Temperature 49 °F 46 °F 31 °F (1964)
Degree Days  
Heating Degree Days 5    
Growing Degree Days 10 (Base 50)    
Moisture  
Dew Point 45 °F    
Average Humidity 68    
Maximum Humidity 95    
Minimum Humidity 30    
Precipitation  
Precipitation 0.00 in - - ()
Sea Level Pressure  
Sea Level Pressure 30.22 in    
Wind  
Wind Speed 1 mph (East)    
Max Wind Speed 7 mph    
Max Gust Speed -    
Visibility 8 miles    
Events Fog    
Averages and records for this station are not official NWS values.
T = Trace of Precipitation, MM = Missing Value Source: NWS Daily Summary

Daily Weather History Graph

Daily Weather History Graph

Search for Another Location

Airport or City:

Trip Planner

Search our weather history database for the weather conditions in past years. The results will help you decide how hot, cold, wet, or windy it might be!

Date:

Astronomy

Oct. 10, 2013 Rise Set
Actual Time 7:40 AM EDT 6:58 PM EDT
Civil Twilight 7:11 AM EDT 7:26 PM EDT
Nautical Twilight 6:39 AM EDT 7:59 PM EDT
Astronomical Twilight 6:06 AM EDT 8:31 PM EDT
Moon 1:35 PM EDT (10/10) 11:30 PM EDT (10/10)
Length of Visible Light 12h 14m
Length of Day
11h 18m
Waxing Crescent, 35% of the Moon is Illuminated
Oct 10
Waxing Crescent
Oct 11
First Quarter
Oct 18
Full
Oct 26
Last Quarter
Nov 3
New

Hourly Weather History & Observations

Time (EDT) Temp. Dew Point Humidity Pressure Visibility Wind Dir Wind Speed Gust Speed Precip Events Conditions
12:14 AM 52.9 °F 47.1 °F 81% 30.27 in 10.0 mi Calm Calm - N/A   Clear
12:35 AM 53.2 °F 48.4 °F 84% 30.26 in 10.0 mi Calm Calm - N/A   Clear
12:54 AM 52.7 °F 47.7 °F 83% 30.25 in 10.0 mi NNE 3.5 mph - N/A   Clear
1:14 AM 52.7 °F 48.0 °F 84% 30.25 in 10.0 mi Calm Calm - N/A   Clear
1:35 AM 52.0 °F 47.5 °F 85% 30.25 in 10.0 mi Calm Calm - N/A   Clear
1:54 AM 52.0 °F 47.7 °F 85% 30.25 in 10.0 mi Calm Calm - N/A   Clear
2:15 AM 51.8 °F 47.3 °F 85% 30.25 in 10.0 mi North 3.5 mph - N/A   Clear
2:34 AM 51.4 °F 47.3 °F 86% 30.25 in 10.0 mi Calm Calm - N/A   Clear
2:55 AM 51.4 °F 46.9 °F 85% 30.25 in 10.0 mi Calm Calm - N/A   Clear
3:14 AM 50.7 °F 46.6 °F 86% 30.25 in 10.0 mi Calm Calm - N/A   Clear
3:34 AM 50.2 °F 46.6 °F 87% 30.24 in 10.0 mi Calm Calm - N/A   Clear
3:55 AM 50.2 °F 46.9 °F 89% 30.24 in 10.0 mi Calm Calm - N/A   Clear
4:14 AM 49.5 °F 45.7 °F 87% 30.24 in 10.0 mi Calm Calm - N/A   Clear
4:35 AM 50.0 °F 46.6 °F 88% 30.25 in 10.0 mi NNE 3.5 mph - N/A   Clear
4:54 AM 50.2 °F 47.3 °F 90% 30.25 in 10.0 mi Calm Calm - N/A   Clear
5:15 AM 49.1 °F 46.0 °F 89% 30.25 in 10.0 mi Calm Calm - N/A   Clear
5:35 AM 49.1 °F 46.4 °F 90% 30.25 in 10.0 mi Calm Calm - N/A   Clear
5:54 AM 49.5 °F 46.9 °F 91% 30.25 in 10.0 mi Calm Calm - N/A   Clear
6:15 AM 49.1 °F 46.6 °F 91% 30.25 in 10.0 mi Calm Calm - N/A   Scattered Clouds
6:34 AM 49.3 °F 46.8 °F 91% 30.25 in 10.0 mi Calm Calm - N/A   Overcast
6:55 AM 50.2 °F 47.7 °F 91% 30.25 in 10.0 mi North 3.5 mph - N/A   Overcast
7:14 AM 51.3 °F 48.9 °F 92% 30.25 in 7.0 mi North 3.5 mph - N/A   Overcast
7:34 AM 51.4 °F 49.3 °F 92% 30.25 in 0.8 mi NE 3.5 mph - N/A   Overcast
7:54 AM 51.4 °F 49.6 °F 94% 30.26 in 0.2 mi Calm Calm - N/A Fog Fog
8:14 AM 51.4 °F 50.0 °F 95% 30.26 in 0.2 mi Calm Calm - N/A Fog Fog
8:35 AM 51.8 °F 50.0 °F 94% 30.26 in 0.2 mi ENE 3.5 mph - N/A Fog Fog
8:54 AM 51.6 °F 50.0 °F 94% 30.27 in 0.2 mi ENE 3.5 mph - N/A Fog Fog
9:15 AM 51.4 °F 50.0 °F 95% 30.27 in 0.2 mi ENE 3.5 mph - N/A Fog Fog
9:34 AM 51.8 °F 50.4 °F 95% 30.27 in 0.2 mi ENE 3.5 mph - N/A Fog Fog
9:55 AM 52.7 °F 51.1 °F 94% 30.27 in 0.2 mi Calm Calm - N/A Fog Fog
10:15 AM 53.2 °F 51.8 °F 95% 30.27 in 0.2 mi Calm Calm - N/A Fog Fog
10:34 AM 54.1 °F 52.7 °F 95% 30.27 in 0.5 mi Calm Calm - N/A Fog Fog
10:55 AM 55.4 °F 53.8 °F 94% 30.26 in 1.5 mi Calm Calm - N/A   Overcast
11:14 AM 56.7 °F 55.2 °F 95% 30.26 in 5.0 mi Calm Calm - N/A   Scattered Clouds
11:34 AM 59.4 °F 57.4 °F 93% 30.26 in 7.0 mi Calm Calm - N/A   Clear
11:54 AM 61.9 °F 54.9 °F 78% 30.25 in 10.0 mi ESE 5.8 mph - N/A   Clear
12:14 PM 64.4 °F 52.0 °F 64% 30.26 in 10.0 mi ENE 4.6 mph - N/A   Clear
12:35 PM 66.6 °F 52.5 °F 61% 30.25 in 10.0 mi Calm Calm - N/A   Clear
12:54 PM 67.8 °F 49.6 °F 52% 30.25 in 10.0 mi SE 3.5 mph - N/A   Clear
1:15 PM 67.8 °F 45.5 °F 45% 30.24 in 10.0 mi East 5.8 mph - N/A   Clear
1:34 PM 68.9 °F 43.0 °F 39% 30.24 in 10.0 mi East 3.5 mph - N/A   Clear
1:55 PM 69.3 °F 40.5 °F 35% 30.23 in 10.0 mi Calm Calm - N/A   Clear
2:14 PM 70.2 °F 41.7 °F 36% 30.22 in 10.0 mi East 4.6 mph - N/A   Clear
2:35 PM 69.6 °F 40.5 °F 35% 30.21 in 10.0 mi ESE 4.6 mph - N/A   Clear
2:54 PM 70.0 °F 40.3 °F 34% 30.20 in 10.0 mi East 6.9 mph - N/A   Clear
3:14 PM 70.3 °F 38.8 °F 32% 30.20 in 10.0 mi SE 4.6 mph - N/A   Clear
3:34 PM 71.4 °F 40.3 °F 32% 30.20 in 10.0 mi SSE 3.5 mph - N/A   Clear
3:54 PM 70.5 °F 39.0 °F 32% 30.20 in 10.0 mi ESE 5.8 mph - N/A   Clear
4:14 PM 71.1 °F 39.4 °F 32% 30.20 in 10.0 mi East 5.8 mph - N/A   Clear
4:34 PM 71.4 °F 39.7 °F 32% 30.19 in 10.0 mi SE 5.8 mph - N/A   Clear
4:55 PM 71.1 °F 41.5 °F 34% 30.19 in 10.0 mi SE 4.6 mph - N/A   Clear
5:14 PM 70.9 °F 41.4 °F 34% 30.18 in 10.0 mi SE 5.8 mph - N/A   Clear
5:35 PM 70.2 °F 39.6 °F 33% 30.18 in 10.0 mi East 5.8 mph - N/A   Clear
5:54 PM 69.8 °F 37.9 °F 31% 30.18 in 10.0 mi ESE 6.9 mph - N/A   Clear
6:15 PM 68.9 °F 36.5 °F 30% 30.18 in 10.0 mi ESE 3.5 mph - N/A   Clear
6:34 PM 67.3 °F 37.9 °F 34% 30.17 in 10.0 mi ESE 3.5 mph - N/A   Clear
6:55 PM 65.8 °F 35.6 °F 33% 30.18 in 10.0 mi East 4.6 mph - N/A   Clear
7:15 PM 62.6 °F 37.4 °F 39% 30.18 in 10.0 mi ESE 3.5 mph - N/A   Clear
7:34 PM 61.7 °F 36.9 °F 40% 30.18 in 10.0 mi Calm Calm - N/A   Clear
7:55 PM 60.3 °F 39.4 °F 46% 30.18 in 10.0 mi Calm Calm - N/A   Clear
8:14 PM 59.2 °F 39.7 °F 49% 30.18 in 10.0 mi Calm Calm - N/A   Clear
8:34 PM 58.5 °F 40.3 °F 51% 30.18 in 10.0 mi Calm Calm - N/A   Clear
8:55 PM 58.1 °F 41.7 °F 54% 30.18 in 10.0 mi Calm Calm - N/A   Clear
9:14 PM 56.1 °F 42.3 °F 60% 30.18 in 10.0 mi Calm Calm - N/A   Clear
9:35 PM 56.1 °F 43.0 °F 61% 30.18 in 10.0 mi Calm Calm - N/A   Clear
9:55 PM 54.7 °F 42.8 °F 64% 30.18 in 10.0 mi Calm Calm - N/A   Clear
10:14 PM 53.6 °F 43.0 °F 67% 30.17 in 10.0 mi Calm Calm - N/A   Clear
10:35 PM 52.9 °F 42.6 °F 68% 30.17 in 10.0 mi Calm Calm - N/A   Clear
10:54 PM 52.7 °F 43.0 °F 70% 30.17 in 10.0 mi Calm Calm - N/A   Clear
11:15 PM 52.7 °F 42.8 °F 69% 30.17 in 10.0 mi Calm Calm - N/A   Clear
11:34 PM 51.6 °F 42.6 °F 71% 30.17 in 10.0 mi Calm Calm - N/A   Clear
11:55 PM 51.1 °F 42.3 °F 72% 30.17 in 10.0 mi Calm Calm - N/A   Clear